Terug naar catalogus

STARLINK-35274

ActiefCommunicatieVLEO
NORAD 66073·PAYLOAD·🇺🇸 United States

Gelanceerd Oct 19, 2025 vanaf Cape Canaveral Space Force Station

Loading…

Volgende Passages (komende 24 uur)

TLE

VersSource: CelesTrak SupGP

Epoch: Sep 14, 2026, 22:39 UTC

1 66073C 25235R   26257.94423611  .00026236  00000+0  77529-3 0  2579
2 66073  53.1583  85.8132 0001153  84.6934 243.0964 15.34372097    10

Volg STARLINK-35274 in realtime met AllMySat

Download on the App Store